Timeline UpdatesTrip UpdatesNews PostsPvt PostsTravel TipsAdmin PostsConv PostsFollowed PostsChat RequestsBlog PostsPNR Posts

Disclaimer
Search
 
 
Fri Apr 25, 2014 12:14:33 ISTHomeTrainsΣChainsAtlasPNRForumGalleryNewsFAQTripsMembersLoginFeedback
No Recent News for this Train
Other Trains in the News **new
Latest...
.
Tue Feb 04, 2014 (11:44PM)
⇐ Return Journey: Train# 59049

59050/Viramgam Valsad Passenger (UnReserved)

Feb 06 2014 (11:38AM)
Change Departure Station:
Change Arrival Station:
Post a Train Travel TipPost a Train Travel Tip **new
Post a Comment/Question/Picture/VideoPost a Comment/Question/Picture/Video
Pantry/Catering
✕ NO Pantry Car
✕ NO Catering
RSA - Rake Sharing
Rake/Coach Composition
LOCO-SLR-GEN*16-SLR; As seen at Ahmedabad.
Loco
BRC WAG 5 HA
News    PNR    Forum    Time-Table    Availability    Fare Chart    Map    Arr/Dep History    Trips    Gallery    ΣChains    X/O    Timeline    
Travel Time: 11h 53m    56 halts    Distance: 316 km    Avg Speed: 26 km/hr
Type: Passenger
Zone: WR/Western
Departs @ 07:30 (Avg 1m late)
Platform# ???
SMTWTFS
Viramgam Junction/VG 
Arrives @ 19:23 (Avg 36m late)
Platform# 3
SMTWTFS
Maroli/MRL 

56 halts. 65 intermediate Stations between Viramgam Junction and Maroli

Show ALL intermediate Stations  Show Old Time-Table

#CodeStation NameX/OArrivesAvgDepartsAvgHaltPFDay#KmSpeedElevZoneAddress
1VG»Viramgam Junction (5)»  -07:30+1--10.05729mWRViramgam, Gujarat
2JKAJakhvadaX  07:43+407:44+51m--112.49231mWRState Highway 17, Gujarat
3VCNVirochannagarX  07:49+407:50+41m--120.03433mWRState Highway 17, Gujarat
4CEChharodiX  08:01+408:02+51m--126.33829mWRSH 17, Gujarat
5WSEVasan IyawaX  08:11+408:12+41m--132.04336mWRState Highway 17, Gujarat
6SAUSanandX  08:19+408:20+51m--137.03840mWRSanand, Gujarat
7GGMGora GhumaXO  08:30+308:31+41m--143.33545mWRParthna Upvan Rd, Gujarat
8ABDAmbli RoadXO  08:40+208:41+41m--148.64350mWRAhmedabad, Gujarat
9CLDYChandlodiya  08:49+508:50+61m--154.33759mWRAhmedabad, Gujarat
10SBISabarmati Junction (3)  08:59-09:00-1m3159.91355mWRAhmadabad, Gujarat
11ADIAhmedabad Junction (12)XO  09:25+710:15+150m5165.31751mWRAhmedabad, Gujarat
12MANManinagar (2)  10:26+310:27+41m1168.54150mWRAhmadabad, Gujarat
13VTAVatva (4)X  10:34+310:35+41m--173.31749mWRDist. Ahmedabad 382445, Gujarat
14GERGeratpur (2)  10:54+210:55+51m--178.63444mWRAhmadabad, Gujarat
15BJDBarejadi (3)XO  11:01+411:02+51m--182.03342mWRBareja-Barejadi Rd, Gujarat
16KANJKanij (3)  11:10+511:11+101m--186.31739mWRBareja-Barejadi Rd, Gujarat
17NEPNenpur (2)  11:21+711:22+81m--189.24235mWRState Highway 3, Gujarat
18MHDMahemdavad Kheda Road (4)  11:28+611:29+101m--193.35037mWRMahemdavad, Gujarat
19GTEGothaj (2)  11:39+911:40+111m--1101.75032mWRState Highway 3, Gujarat
20NDNadiad Junction (4)X  11:51+1111:53+102m11110.95537mWRNadiad, Gujarat
21UTDUtarsanda (4)X  11:59+1212:00+131m--1116.44140mWRUttarsanda, Gujarat
22KBRVKanjari Boriyavi Junction (4)X  12:08+1312:09+171m--1121.94539mWRKanjari, Gujarat
23ANNDAnand Junction (6)  12:19+1912:22+183m11129.44644mWRAnand, Gujarat
24VXDVadod (3)XO  12:31+1812:32+211m--1136.21744mWRAnand District, Gujarat
25ADDAdas Road (4)XO  12:46+1412:47+171m--1140.32542mWRNational Highway 8, Gujarat
26VDAVasad Junction (3)X  12:58+1312:59+171m--1144.94340mWRVasad, Gujarat
27NDRNandesari (2)  13:06+1713:07+181m--1149.93542mWRNandesari, Gujarat
28RNORanoli (2)  13:14+1713:15+191m--1154.11339mWRVadodara District, Gujarat
29BJWBajva (3)X  13:33+1313:34+141m--1157.91238mWRVadodara, Gujarat
30BRCVadodara Junction (7)X  14:10+714:20+1710m21165.13036mWRVadodara, Gujarat
31VSVishvamitri (4)  14:26+2114:27+231m--1168.14930mWRVadodara, Gujarat
32MPRMakarpura (4)  14:34+2414:35+261m--1173.86730mWRVadodara, Gujarat
33VRMVarnama (2)  14:40+3014:41+331m--1179.44728mWRVadodara, Gujarat
34ITAItola (4)  14:46+3514:47+381m--1183.44627mWRNational Highway 8, Gujarat
35KSPRKashipura Sarar (2)  14:52+4014:53+451m--1187.26726mWRGIDC Industrial Area, Gujarat
36MYGMiyagam Karjan (2)X  15:00+4915:01+511m11194.95329mWRKarjan, Gujarat
37LKDLakodara (4)X  15:10+5415:11+571m--1203.03626mWRNH 8, Gujarat
38PLJPalej (4)  15:23+5615:24+591m--1210.23029mWRPalej, Gujarat
39VREVarediya (4)X  15:37+5515:38+571m--1216.85121mWRNH 8, Gujarat
40NIUNabipur (3)X  15:46+1:0015:47+1:001m--1223.64724mWRNabipur, Gujarat
41CVJChavaj (2)XO  15:56+5615:57+561m--1230.6820mWRBharuch, Gujarat
42BHBharuch Junction (5)X  16:35+3116:40+345m41235.67019mWRBharuch, Gujarat
43AKVAnkleshwar Junction (4)XO  16:48+3716:49+411m21245.06119mWRAnkleshwar, Gujarat
44SNJLSanjali (2)  16:55-16:56-1m21251.12823mWRPanoli, Gujarat
45PAOPanoli (3)X  17:05+4217:06+471m21255.31329mWRPanoli, Gujarat
46HATHathuran (2)XO  17:24+3417:25+351m21259.14432mWRKosamba, Gujarat
47KSBKosamba Junction (3)  17:31+3417:32+351m21263.54230mWRKosamba, Gujarat
48KIMKim (2)X  17:43+3417:44+381m21271.31418mWRNH 8, Gujarat
49KDSDKudsad (2)X  17:56-17:57-1m--1274.15418mWRNH 8, Gujarat
50SYNSayan (3)X  18:05+3118:06+321m21281.23021mWRSayan Satellite town, Gujarat
51GTXGothangam (2)  18:12+3118:13+321m21284.23719mWRAmroli Sayan Rd, Gujarat
52KSEKosad (2)XO  18:19+3218:20+321m21287.81417mWRSurat, Gujarat
53URNUtran (3)X  18:34+2518:35+261m21291.01515mWRSurat, Gujarat
54STSurat (4)X  18:50+2518:55+265m31294.93419mWRSurat 395001, Gujarat
55UDNUdhna Junction (3)  19:02+3019:03+311m21298.94816mWRUdhna 394210, Gujarat
56BHETBhestan (2)X  19:09+3219:10+341m21303.75713mWRSurat, Gujarat
57SCHSachin (3)  19:16+3419:17+341m21309.46611mWRKansad Road Sachin, Gujarat
58MRL•Maroli (3)•X  19:23+3619:24+361m31316.15115mWRMaroli, Gujarat
59NVSNavsari (3)X  19:34+3419:35+361m21324.55614mWRNavsari, Gujarat
60VDHVedchha (3)  19:44+3519:45+351m31332.94013mWRNavsari, Gujarat
61ACLAncheli (2)X  19:50+3519:51+351m21336.34620mWRNavsari, Gujarat
62AMLAmalsad (3)X  19:56+3419:57+351m21340.15612mWRAmalsad, Gujarat
63BIMBilimora Junction (4)XO  20:03+3720:04+351m21345.74011mWRBilimora, Gujarat
64JRSJoravasan (2)O  20:10+3320:11+331m21349.65115mWRJoravasan, Gujarat
65DGIDungri (3)  20:17+3220:18+331m21354.72020mWRNH 8, Gujarat
66BLValsad (3)  20:45+18-31363.6-15mWRValsad, Gujarat
Scroll to Top
Scroll to Bottom